When you browse on this site, cookies collect data to enhance your experience and personalize the content and advertising you see.
Visit our Privacy Policy to learn more. By continuing to use the site, you agree to this use of cookies and data.
  • In Spain
  • List of Countries
  • For 7 days
  • Water Temperature
  • Weather Map
  • Weather Widgets
  • user-avatar
    Login

    Hourly Weather Vishneve (Chervonyi Ahronom)

    Today, 21 September, Saturday

    Time Temperature Precipitation Wind Pressure Humidity
    00:00 +7°C° 0 mm 3 mps 755 mmHg 72%
    01:00 +5°C° 0 mm 3 mps 755 mmHg 75%
    02:00 +5°C° 0 mm 3 mps 755 mmHg 76%
    03:00 +5°C° 0 mm 3 mps 756 mmHg 77%
    04:00 +4°C° 0 mm 4 mps 756 mmHg 78%
    05:00 +4°C° 0 mm 4 mps 756 mmHg 79%
    06:00 +5°C° 0 mm 5 mps 756 mmHg 72%
    07:00 +7°C° 0 mm 5 mps 756 mmHg 65%
    08:00 +8°C° 0 mm 6 mps 757 mmHg 58%
    09:00 +9°C° 0 mm 6 mps 757 mmHg 51%
    10:00 +11°C° 0 mm 6 mps 757 mmHg 44%
    11:00 +13°C° 0 mm 6 mps 757 mmHg 37%
    12:00 +14°C° 0 mm 6 mps 757 mmHg 34%
    13:00 +14°C° 0 mm 6 mps 757 mmHg 31%
    14:00 +15°C° 0 mm 6 mps 757 mmHg 28%
    15:00 +15°C° 0 mm 5 mps 757 mmHg 29%
    16:00 +15°C° 0 mm 5 mps 757 mmHg 30%
    17:00 +14°C° 0 mm 4 mps 756 mmHg 31%
    18:00 +13°C° 0 mm 4 mps 756 mmHg 34%
    19:00 +11°C° 0 mm 3 mps 756 mmHg 38%
    20:00 +10°C° 0 mm 3 mps 756 mmHg 41%
    21:00 +10°C° 0 mm 3 mps 756 mmHg 42%
    22:00 +11°C° 0 mm 3 mps 756 mmHg 43%
    23:00 +11°C° 0 mm 4 mps 756 mmHg 44%

    Tomorrow, 22 September, Sunday

    Time Temperature Precipitation Wind Pressure Humidity
    00:00 +11°C° 0 mm 4 mps 756 mmHg 46%
    01:00 +12°C° 0 mm 4 mps 756 mmHg 47%
    02:00 +12°C° 0 mm 5 mps 756 mmHg 48%
    03:00 +12°C° 0 mm 5 mps 755 mmHg 48%
    04:00 +12°C° 0 mm 5 mps 755 mmHg 48%
    05:00 +12°C° 0 mm 5 mps 755 mmHg 48%
    06:00 +13°C° 0 mm 6 mps 755 mmHg 46%
    07:00 +14°C° 0 mm 6 mps 755 mmHg 44%
    08:00 +15°C° 0 mm 6 mps 755 mmHg 42%
    09:00 +17°C° 0 mm 6 mps 755 mmHg 38%
    10:00 +20°C° 0 mm 6 mps 755 mmHg 34%
    11:00 +22°C° 0 mm 7 mps 754 mmHg 31%
    12:00 +22°C° 0 mm 6 mps 754 mmHg 30%
    13:00 +23°C° 0 mm 6 mps 754 mmHg 29%
    14:00 +24°C° 0 mm 6 mps 753 mmHg 28%
    15:00 +23°C° 0 mm 6 mps 753 mmHg 30%
    16:00 +23°C° 0 mm 5 mps 752 mmHg 31%
    17:00 +22°C° 0 mm 4 mps 752 mmHg 32%
    18:00 +20°C° 0 mm 4 mps 752 mmHg 37%
    19:00 +19°C° 0 mm 3 mps 752 mmHg 42%
    20:00 +17°C° 0 mm 3 mps 752 mmHg 47%
    21:00 +16°C° 0 mm 2 mps 752 mmHg 49%
    22:00 +16°C° 0 mm 2 mps 752 mmHg 52%
    23:00 +15°C° 0 mm 2 mps 752 mmHg 54%

    Day after tomorrow, 23 September, Monday

    Time Temperature Precipitation Wind Pressure Humidity
    00:00 +15°C° 0 mm 2 mps 752 mmHg 56%
    01:00 +14°C° 0 mm 2 mps 752 mmHg 59%
    02:00 +14°C° 0 mm 2 mps 752 mmHg 61%
    03:00 +13°C° 0 mm 2 mps 752 mmHg 63%
    04:00 +13°C° 0 mm 1 mps 752 mmHg 66%
    05:00 +12°C° 0 mm 1 mps 752 mmHg 69%
    06:00 +14°C° 0 mm 1 mps 752 mmHg 65%
    07:00 +15°C° 0 mm 1 mps 752 mmHg 61%
    08:00 +17°C° 0 mm 2 mps 752 mmHg 57%
    09:00 +20°C° 0 mm 1 mps 752 mmHg 52%
    10:00 +21°C° 0 mm 1 mps 752 mmHg 46%
    11:00 +23°C° 0 mm 1 mps 753 mmHg 41%
    12:00 +24°C° 0 mm 1 mps 752 mmHg 38%
    13:00 +25°C° 0 mm 1 mps 752 mmHg 35%
    14:00 +26°C° 0 mm 1 mps 752 mmHg 33%
    15:00 +25°C° 0 mm 2 mps 751 mmHg 34%
    16:00 +25°C° 0 mm 2 mps 751 mmHg 35%
    17:00 +24°C° 0 mm 3 mps 751 mmHg 37%
    18:00 +21°C° 0 mm 3 mps 751 mmHg 45%
    19:00 +19°C° 0 mm 4 mps 752 mmHg 54%
    20:00 +17°C° 0 mm 4 mps 752 mmHg 62%
    21:00 +15°C° 0 mm 4 mps 752 mmHg 65%
    22:00 +15°C° 0 mm 4 mps 752 mmHg 68%
    23:00 +14°C° 0 mm 4 mps 752 mmHg 71%

    24 September, Tuesday

    Time Temperature Precipitation Wind Pressure Humidity
    00:00 +13°C° 0 mm 4 mps 752 mmHg 73%
    01:00 +13°C° 0 mm 3 mps 752 mmHg 75%
    02:00 +12°C° 0 mm 3 mps 752 mmHg 78%
    03:00 +12°C° 0 mm 3 mps 752 mmHg 79%
    04:00 +12°C° 0 mm 2 mps 752 mmHg 80%
    05:00 +12°C° 0 mm 2 mps 752 mmHg 82%
    06:00 +13°C° 0 mm 2 mps 752 mmHg 77%
    07:00 +15°C° 0 mm 2 mps 752 mmHg 71%
    08:00 +16°C° 0 mm 2 mps 752 mmHg 66%
    09:00 +18°C° 0 mm 2 mps 752 mmHg 59%
    10:00 +20°C° 0 mm 3 mps 752 mmHg 52%
    11:00 +22°C° 0 mm 3 mps 752 mmHg 45%
    12:00 +24°C° 0 mm 3 mps 751 mmHg 42%
    13:00 +24°C° 0 mm 3 mps 751 mmHg 39%
    14:00 +25°C° 0 mm 3 mps 750 mmHg 36%
    15:00 +23°C° 0 mm 4 mps 750 mmHg 39%
    16:00 +22°C° 0 mm 4 mps 750 mmHg 42%
    17:00 +21°C° 0 mm 4 mps 750 mmHg 46%
    18:00 +20°C° 0 mm 4 mps 750 mmHg 53%
    19:00 +18°C° 0 mm 3 mps 750 mmHg 60%
    20:00 +17°C° 0 mm 3 mps 750 mmHg 67%
    21:00 +16°C° 0 mm 3 mps 750 mmHg 70%
    22:00 +15°C° 0 mm 2 mps 750 mmHg 74%
    23:00 +15°C° 0 mm 2 mps 750 mmHg 77%

    25 September, Wednesday

    Time Temperature Precipitation Wind Pressure Humidity
    00:00 +14°C° 0 mm 2 mps 750 mmHg 79%
    01:00 +14°C° 0 mm 1 mps 750 mmHg 80%
    02:00 +14°C° 0 mm 1 mps 750 mmHg 82%
    03:00 +13°C° 0 mm 1 mps 750 mmHg 83%
    04:00 +13°C° 0 mm 1 mps 750 mmHg 84%
    05:00 +13°C° 0 mm 1 mps 750 mmHg 84%
    06:00 +14°C° 0 mm 1 mps 750 mmHg 77%
    07:00 +16°C° 0 mm 1 mps 750 mmHg 69%
    08:00 +18°C° 0 mm 2 mps 750 mmHg 61%
    09:00 +20°C° 0 mm 2 mps 750 mmHg 52%
    10:00 +22°C° 0 mm 3 mps 750 mmHg 44%
    11:00 +25°C° 0 mm 4 mps 750 mmHg 35%
    12:00 +25°C° 0 mm 4 mps 750 mmHg 34%
    13:00 +25°C° 0 mm 5 mps 750 mmHg 34%
    14:00 +25°C° 0 mm 5 mps 749 mmHg 34%
    15:00 +23°C° 0 mm 5 mps 749 mmHg 36%
    16:00 +23°C° 0 mm 4 mps 749 mmHg 37%
    17:00 +22°C° 0 mm 4 mps 748 mmHg 39%
    18:00 +21°C° 0 mm 4 mps 749 mmHg 44%
    19:00 +19°C° 0 mm 3 mps 749 mmHg 50%
    20:00 +18°C° 0 mm 3 mps 749 mmHg 56%
    21:00 +17°C° 0 mm 3 mps 749 mmHg 59%
    22:00 +17°C° 0 mm 3 mps 749 mmHg 61%
    23:00 +16°C° 0 mm 3 mps 749 mmHg 64%

    26 September, Thursday

    Time Temperature Precipitation Wind Pressure Humidity
    00:00 +16°C° 0 mm 3 mps 749 mmHg 66%
    01:00 +16°C° 0 mm 2 mps 748 mmHg 67%
    02:00 +15°C° 0 mm 2 mps 748 mmHg 68%
    03:00 +15°C° 0 mm 2 mps 748 mmHg 71%
    04:00 +15°C° 0 mm 2 mps 748 mmHg 73%
    05:00 +14°C° 0 mm 3 mps 748 mmHg 75%
    06:00 +16°C° 0 mm 3 mps 748 mmHg 74%
    07:00 +16°C° 0 mm 3 mps 748 mmHg 73%
    08:00 +17°C° 0 mm 3 mps 748 mmHg 71%
    09:00 +18°C° 0.1 mm 3 mps 748 mmHg 72%
    10:00 +18°C° 0.1 mm 2 mps 748 mmHg 72%
    11:00 +18°C° 0.1 mm 2 mps 748 mmHg 73%
    12:00 +19°C° 0.4 mm 1 mps 748 mmHg 75%
    13:00 +19°C° 0.4 mm 1 mps 748 mmHg 77%
    14:00 +19°C° 0.4 mm 1 mps 748 mmHg 78%
    15:00 +18°C° 0.4 mm 2 mps 748 mmHg 79%
    16:00 +18°C° 0.4 mm 2 mps 748 mmHg 80%
    17:00 +18°C° 0.4 mm 2 mps 748 mmHg 80%
    18:00 +17°C° 0.2 mm 2 mps 748 mmHg 84%
    19:00 +16°C° 0.2 mm 3 mps 748 mmHg 88%
    20:00 +14°C° 0.2 mm 3 mps 748 mmHg 92%
    21:00 +14°C° 0 mm 3 mps 748 mmHg 90%
    22:00 +14°C° 0 mm 4 mps 749 mmHg 89%
    23:00 +14°C° 0 mm 4 mps 749 mmHg 87%
    Show more